Location: Beaucens
(42.9667°N, 0.0500°W)
Time: 20:21:29
(UTC+00:00)

Daily predictions for brighter satellites

Satellite Brightness Start Highest point End
(mag) Time Altitude Azimuth Time Altitude Azimuth Time Altitude Azimuth
Cosmos 1709 Rocket 4.2 19:40:34 10° N 19:46:34 55° ENE 19:52:32 10° SSE
CZ-4C R/B 3.2 19:40:41 10° NNW 19:48:00 73° NE 19:56:26 10° SE
Cosmos 1782 2.8 19:50:51 10° S 19:54:46 64° E 19:58:43 10° NNE
CZ-4 R/B 4.3 19:53:29 10° WSW 19:55:33 14° W 19:57:38 10° WNW
USA 308 3.2 19:51:53 10° NW 19:56:08 59° NNE 20:00:22 10° ESE
Cosmos 1933 4.0 19:54:28 10° SSW 19:58:26 60° W 20:02:25 10° N
X-37B 2.8 19:57:01 10° W 19:59:16 18° SW 20:01:31 10° S
Helios 1A Rocket 4.2 19:55:39 10° S 19:59:35 43° W 20:03:33 10° NNW
Cosmos 1500 3.7 19:59:03 10° N 20:02:36 41° ENE 20:06:08 10° SSE
Cosmos 1437 2.3 20:00:09 10° S 20:02:57 67° E 20:05:46 10° NNE
SJ-6B 3.4 20:03:17 10° S 20:07:10 60° W 20:11:10 10° NNW
ERS-2 3.7 20:07:39 10° N 20:11:04 39° WNW 20:14:27 10° SW
Terra 4.1 20:15:02 10° ENE 20:15:20 10° ENE 20:15:38 10° NE
Cosmos 1515 Rocket 3.8 20:14:38 10° SSE 20:18:53 50° E 20:23:07 10° NNE
Cosmos 2228 Rocket 4.4 20:19:04 14° SE 20:21:47 23° E 20:25:19 10° NE
USA 267 4.0 20:15:39 10° SSE 20:21:50 44° SW 20:28:04 10° WNW
Cosmos 2315 Rocket 4.1 20:16:01 10° S 20:22:24 86° W 20:28:49 10° N
Tianhe-1 1.6 20:19:48 10° SW 20:22:45 39° SSE 20:25:06 14° E
Cosmos 1633 Rocket 3.4 20:19:21 10° NNW 20:23:44 67° W 20:28:07 10° S
Resurs 01 Rocket 1.7 20:21:33 11° SSE 20:25:41 65° ENE 20:30:06 10° N
Akebono 4.2 20:26:30 10° NNW 20:28:34 60° WSW 20:30:07 17° S
BREEZE M DEB (TANK) 3.5 20:24:10 10° WNW 20:28:55 34° N 20:31:08 10° ENE
Cosmos 1328 Rocket 4.0 20:25:29 10° SSW 20:29:52 67° W 20:34:16 10° N
SWARM A 4.5 20:28:03 10° N 20:31:17 49° E 20:33:27 19° SSE
Cosmos 2082 Rocket 2.5 20:25:55 10° NNW 20:31:27 55° ENE 20:35:40 17° SE
SPOT 1/Viking Rocket 4.1 20:27:48 15° SE 20:31:43 43° ENE 20:36:35 10° N
ERS-1 Rocket 4.5 20:29:27 13° ESE 20:32:29 22° ENE 20:36:16 10° NNE
USA 305 3.0 20:29:31 10° NW 20:33:45 69° SW 20:36:40 19° SE
Cosmos 1943 Rocket 3.3 20:35:05 17° SE 20:37:34 23° E 20:41:50 10° NE
Spot 2 Rocket 4.3 20:35:19 17° SE 20:38:34 36° ENE 20:43:08 10° N
OBJECT-B 3.5 20:37:56 10° SW 20:40:14 18° W 20:42:33 10° NW
Cosmos 1538 Rocket 4.1 20:35:04 10° NNW 20:40:26 83° WSW 20:44:50 15° SSE
Cosmos 1470 Rocket 3.7 20:36:41 10° N 20:41:11 77° W 20:45:21 12° S
Meteor 1-10 Rocket 4.3 20:35:48 10° S 20:41:17 61° E 20:46:54 10° NNE
Landsat 7 3.8 20:40:50 16° SSE 20:44:38 80° ENE 20:49:25 10° N
SPOT 5 4.2 20:42:26 17° ESE 20:45:23 29° ENE 20:49:54 10° N
Cosmos 1536 4.0 20:43:49 10° NNE 20:47:18 27° ENE 20:48:43 22° ESE
SPOT 3 Rocket 3.5 20:43:34 14° SSE 20:48:01 86° WSW 20:53:12 10° NNW
Cosmos 1271 Rocket 2.7 20:44:37 12° S 20:48:15 71° E 20:52:15 10° NNE
CZ-2C R/B 3.7 20:44:18 10° NNE 20:48:50 67° ESE 20:53:17 11° S
COSMOS 2406 3.8 20:47:50 10° NNW 20:53:21 53° WSW 20:58:07 14° S
USA 306 3.4 20:49:16 10° WNW 20:53:23 49° SW 20:55:36 24° SSE
ISS -3.5 20:50:07 10° WSW 20:53:27 70° NNW 20:56:50 10° NE
CREW DRAGON DEMO-1 DEB 4.0 20:51:22 10° W 20:53:34 24° SW 20:54:03 23° SSW
Cosmos 2278 Rocket 3.2 20:48:43 10° SW 20:54:12 50° WNW 20:59:43 10° NNE
Cosmos 1680 Rocket 4.1 20:49:30 10° N 20:54:37 45° ENE 20:57:31 24° SE
Cosmos 1933 Rocket 3.5 20:50:34 10° N 20:54:55 85° W 20:57:58 19° S
SJ 16-02 2.1 20:52:28 10° SSW 20:56:48 54° WNW 21:01:11 10° N
Cosmos 2369 Rocket 3.6 20:58:46 18° ESE 20:59:01 18° E 21:02:39 10° ENE
Cosmos 1544 4.3 20:57:34 10° NNE 21:00:39 26° ENE 21:01:17 24° E
IGS 5A 3.9 20:57:53 16° S 21:01:03 57° W 21:05:09 10° NNW
Cosmos 1666 3.0 21:03:43 10° NNW 21:07:23 60° W 21:09:29 23° SSW
JB-3 4.3 21:07:03 10° NNE 21:10:49 55° E 21:12:01 38° SSE
ARIANE 5 R/B 2.6 21:10:14 33° SE 21:12:04 65° ENE 21:16:23 10° N
Cosmos 1812 4.5 21:09:21 10° SW 21:12:49 32° WNW 21:16:19 10° NNW
Iridium 4 Rocket 3.9 21:12:28 15° S 21:17:22 81° W 21:23:18 10° N
NOSS 3-4 (A) 4.1 21:10:35 10° NW 21:17:39 68° WSW 21:22:34 25° SSE
NOSS 3-4 (C) 4.1 21:10:42 10° NW 21:17:45 69° WSW 21:22:39 25° SSE
USA 245 2.6 21:18:31 54° NW 21:18:31 54° NW 21:20:33 10° NNW
BREEZE-M DEB (TANK) 2.8 21:16:40 10° NW 21:18:30 29° NNE 21:18:58 26° NE
USA 307 4.1 21:18:18 10° WNW 21:22:03 30° SW 21:23:19 25° SSW
Cosmos 990 Rocket 4.0 21:17:34 10° SSW 21:22:48 87° WNW 21:28:05 10° NNE
Cosmos 1833 Rocket 4.2 21:19:23 10° NW 21:24:11 29° WSW 21:28:30 12° SSW
OAO 3 Rocket 4.0 21:20:57 10° WSW 21:24:50 31° S 21:24:50 31° S
Cosmos 1898 Rocket 3.4 21:21:38 17° SSW 21:25:47 81° ESE 21:31:09 10° NNE
Meteor 1-27 Rocket 3.8 21:24:44 18° S 21:29:15 87° W 21:35:14 10° N
ATLAS 2AS CENTAUR R/B 2.7 21:23:43 10° NW 21:31:05 90° S 21:34:30 33° SE
SL-24 R/B - RUBIN 2 3.8 21:27:00 10° NW 21:32:24 86° NE 21:34:02 43° SE
Cosmos 923 Rocket 4.2 21:27:37 10° NNW 21:32:52 65° WSW 21:35:18 32° S
Cosmos 44 3.4 21:28:37 10° NNW 21:34:03 89° WSW 21:35:57 41° SSE
USA 308 4.4 21:32:23 10° WNW 21:35:50 24° SW 21:36:40 22° SSW
CZ-4C R/B 4.4 21:29:53 10° NW 21:36:21 30° WSW 21:42:29 13° SSW
Cosmos 1818 3.7 21:31:15 10° NNW 21:36:43 64° NE 21:38:46 38° ESE
Cosmos 2154 Rocket 4.0 21:31:18 10° N 21:37:38 83° W 21:40:59 30° S
Cosmos 1743 2.8 21:35:02 10° N 21:38:51 56° E 21:39:06 55° E
Nadezhda 1 Rocket 4.1 21:35:33 18° SSW 21:40:21 76° W 21:46:35 10° N
BREEZE-M R/B 4.0 21:45:21 10° NW 21:47:25 23° NNE 21:48:00 21° NE
H-2A R/B 3.3 21:47:54 10° NNE 21:52:05 71° ESE 21:52:23 67° SE
Terra 1.7 21:51:09 53° SSE 21:52:15 80° ENE 21:57:02 10° N
Cosmos 1461 3.2 21:50:19 19° SW 21:53:39 78° WNW 21:58:20 10° NNE
Gbstr 26 Del rocket 4.1 21:47:46 10° WNW 21:55:24 81° NNE 21:58:20 36° ESE
Cosmos 1862 Rocket 3.7 21:57:49 54° E 21:57:49 54° E 22:02:00 10° NNE
Cosmos 2297 4.2 21:53:22 10° SW 21:58:59 60° WNW 22:04:38 10° NNE
Tianhe-1 3.3 21:56:02 10° W 21:57:05 19° W 21:57:05 19° W
Cosmos 1340 Rocket 3.1 21:55:50 10° NNW 21:59:51 60° W 22:00:21 55° SW
Okean 1 3.3 22:00:55 69° ENE 22:00:55 69° ENE 22:04:42 10° NNE
Resurs 01 Rocket 4.3 22:00:46 10° WSW 22:02:36 12° W 22:04:25 10° WNW
ATLAS CENTAUR R/B 3.3 22:10:15 16° NE 22:10:15 16° NE 22:11:13 10° NE
Cosmos 1607 4.1 22:06:38 45° SSE 22:08:13 57° ESE 22:14:33 10° NE
ERS-1 Rocket 3.6 22:09:26 37° SW 22:10:56 48° W 22:15:48 10° NNW
Cosmos 1515 3.9 22:13:57 63° WNW 22:13:57 63° WNW 22:17:38 10° N
Cosmos 2082 Rocket 4.0 22:10:53 10° NW 22:15:05 22° W 22:17:31 17° SW
Cosmos 2366 rocket 4.0 22:11:17 10° N 22:17:27 67° E 22:18:59 50° SE
Cosmos 2181 Rocket 3.8 22:16:13 50° S 22:17:57 79° E 22:24:05 10° N
ERBS 3.7 22:15:36 10° NW 22:17:42 36° WNW 22:17:42 36° WNW
Cosmos 1707 Rocket 4.5 22:18:53 35° WSW 22:20:05 44° WNW 22:24:20 10° N
Cosmos 1937 Rocket 4.3 22:17:04 20° SW 22:20:23 47° WNW 22:25:24 10° N
Cosmos 1943 Rocket 2.8 22:16:30 16° SW 22:20:54 53° WNW 22:26:23 10° NNE
Cosmos 489 Rocket 4.4 22:15:22 10° NNW 22:21:39 89° WSW 22:23:16 53° SSE
SPOT 5 4.0 22:21:39 31° SW 22:23:15 39° W 22:28:13 10° NNW
Milstar 3 4.2 22:17:22 10° WSW 22:28:39 33° SSW 22:29:20 33° S
Cosmos 1867 3.4 22:28:39 58° SSW 22:29:46 86° ESE 22:35:16 10° NE
Cosmos 1656 Rocket 3.5 22:30:07 63° ESE 22:30:18 63° ESE 22:35:47 10° NNE
ISS -1.1 22:28:01 10° WNW 22:30:43 22° NNW 22:33:25 10° NE
Cosmos 1238 Rocket 3.7 22:31:37 10° NNW 22:37:12 59° W 22:37:53 54° SW
Cosmos 1975 3.3 22:37:51 10° N 22:41:09 58° NNW 22:41:09 58° NNW
Cosmos 1048 Rocket 4.1 22:37:07 10° NNW 22:42:23 62° ENE 22:42:47 60° E
Cosmos 2369 Rocket 2.4 22:40:29 41° SW 22:42:25 67° WNW 22:48:04 10° NNE
Cosmos 2218 Rocket 4.1 22:40:54 10° NNW 22:47:11 72° W 22:48:39 54° SSW
ALOS 2 3.8 22:47:43 32° ENE 22:47:43 32° ENE 22:51:23 10° N
Cosmos 1733 Rocket 4.2 22:45:34 10° NNW 22:49:29 34° W 22:49:30 34° W
BREEZE-M DEB (TANK) 4.5 22:34:03 10° WNW 22:50:42 75° NNE 22:52:48 40° E
Lacrosse 5 3.2 22:54:17 28° ENE 22:54:17 28° ENE 22:56:54 10° ENE
RESURS DK-1 2.9 22:50:14 10° NNW 22:53:36 57° NNW 22:53:36 57° NNW
SL-27 R/B 4.3 22:51:14 10° N 22:53:01 27° N 22:53:01 27° N
Nadezhda 3 Rocket 4.0 22:59:44 58° ESE 23:00:21 62° E 23:06:28 10° NNE
Cosmos 1908 Rocket 4.1 23:05:12 10° NNW 23:09:03 54° WNW 23:09:03 54° WNW
Cosmos 2298 Rocket 4.1 23:09:55 63° WSW 23:10:25 67° WNW 23:15:43 10° NNE
Meteor 1-12 Rocket 4.3 23:06:05 10° N 23:11:54 68° ENE 23:12:18 65° ESE
Cosmos 494 Rocket 3.9 23:15:36 10° NNW 23:20:30 78° WNW 23:20:30 78° WNW
ATLAS 2AS CENTAUR R/B 4.4 23:16:33 10° WNW 23:20:53 17° WSW 23:21:55 17° WSW
Cosmos 2242 Rocket 4.3 23:21:30 48° WNW 23:21:30 48° WNW 23:25:28 10° N
Cosmos 1066 Rocket 4.2 23:22:33 66° E 23:22:34 66° E 23:28:09 10° NNE
COBE Rocket 4.1 23:26:12 69° ENE 23:26:12 69° ENE 23:31:15 10° N
Okean 2 Rocket 4.2 23:24:43 10° N 23:28:09 36° NE 23:28:09 36° NE
Meteor 1-15 Rocket 4.5 23:23:56 10° N 23:29:37 58° ENE 23:30:02 57° E
Terra 4.3 23:30:02 11° W 23:30:34 11° W 23:31:54 10° WNW
Cosmos 2239 Rocket 4.3 23:24:17 10° N 23:30:39 88° E 23:31:22 73° SSE
Okean 1-7 4.1 23:33:21 38° WNW 23:33:21 38° WNW 23:36:51 10° N
Cosmos 44 Rocket 3.5 23:30:05 10° NNW 23:34:54 76° NNW 23:34:54 76° NNW
Cosmos 2297 Rocket 4.2 23:31:39 10° N 23:36:00 22° NE 23:39:09 14° E
NOSS 2-1 (C) 4.3 23:39:24 10° NW 23:44:31 81° NE 23:45:14 69° ESE
Cosmos 1125 Rocket 4.2 23:44:32 43° W 23:45:07 45° WNW 23:50:08 10° N
ATLAS CENTAUR R/B 3.4 23:46:20 20° NW 23:46:44 20° NW 23:49:38 10° N
NOSS 2-1 (D) 4.2 23:46:17 10° NW 23:51:25 89° NE 23:51:55 77° SE
Cosmos 1934 Rocket 3.7 23:46:53 10° N 23:53:01 89° E 23:53:27 79° SSE
